This is the latest recevied weather packets stored in our database for station/object YO2MAS-13. If no packets are shown the sender has not sent any weather packets the latest 10 day(s).
| Time | Temp. | Humidity | Pressure | Rain* | Wind** | Luminosity | Snow |
|---|---|---|---|---|---|---|---|
| 1777639523 | 21.11° C | 34% | 1027.2 hPa | - | - | - | - |
| 1777638623 | 20.56° C | 35% | 1027.5 hPa | - | - | - | - |
| 1777637723 | 20° C | 36% | 1027.7 hPa | - | - | - | - |
| 1777636823 | 21.11° C | 36% | 1027.7 hPa | - | - | - | - |
| 1777635923 | 20° C | 38% | 1027.9 hPa | - | - | - | - |
| 1777635023 | 20° C | 35% | 1028 hPa | - | - | - | - |
| 1777634123 | 20° C | 35% | 1028 hPa | - | - | - | - |
| 1777633223 | 18.89° C | 35% | 1028.3 hPa | - | - | - | - |
| 1777632323 | 19.44° C | 41% | 1028.3 hPa | - | - | - | - |
| 1777631505 | 19.44° C | 40% | 1028.6 hPa | - | - | - | - |
| 1777631423 | 19.44° C | 40% | 1028.6 hPa | - | - | - | - |
| 1777630523 | 18.33° C | 42% | 1028.7 hPa | - | - | - | - |
| 1777629623 | 17.22° C | 42% | 1028.8 hPa | - | - | - | - |
| 1777628723 | 16.67° C | 43% | 1029.1 hPa | - | - | - | - |
| 1777627825 | 17.22° C | 50% | 1029.2 hPa | - | - | - | - |
| 1777626923 | 16.67° C | 51% | 1029.3 hPa | - | - | - | - |
| 1777626023 | 15.56° C | 55% | 1029.4 hPa | - | - | - | - |
| 1777625867 | 15° C | 60% | 1029.6 hPa | - | - | - | - |
| 1777625123 | 15° C | 60% | 1029.6 hPa | - | - | - | - |
| 1777624223 | 14.44° C | 57% | 1029.6 hPa | - | - | - | - |
| 1777623323 | 13.89° C | 57% | 1029.7 hPa | - | - | - | - |
| 1777622423 | 14.44° C | 68% | 1029.7 hPa | - | - | - | - |
| 1777621523 | 12.78° C | 69% | 1029.9 hPa | - | - | - | - |
| 1777620623 | 12.22° C | 69% | 1029.8 hPa | - | - | - | - |
| 1777619723 | 12.78° C | 72% | 1029.7 hPa | - | - | - | - |
* Rain since midnight (hover to see other rain measurements)
** Current wind speed in m/s (hover to see current wind gust speed)